{"data":{"norad_id":66042,"intl_designator":"2025-233K","name":"QIANFAN-100","alt_names":[],"object_type":"PAYLOAD","status":"ACTIVE","operator":null,"country":"PRC","launch_date":"2025-10-17","launch_site_code":"TAISC","launch_vehicle":null,"mission":null,"orbit_class":"UNKNOWN","rcs_meters":null,"size_class":null,"mass_kg":null,"dimensions":null,"purposes":[],"wikipedia_slug":null,"has_3d_model":false,"image_url":null,"decayed_at":null,"tle_current":{"epoch":"2026-09-20T09:38:56.249952Z","epoch_age_seconds":148923,"freshness":"FRESH","line1":"1 66042U 25233K   26263.40203993  .00000083  00000+0  10928-3 0  9995","line2":"2 66042  89.0071  33.5097 0001798  94.5084 265.6273 13.51020431 46097","mean_motion":13.51020431,"eccentricity":0.0001798,"inclination_deg":89.0071,"raan_deg":33.5097,"arg_perigee_deg":94.5084,"mean_anomaly_deg":265.6273,"bstar":0.00010928,"rev_number":4609,"period_min":106.58610091737,"perigee_km":1067.1676025073,"apogee_km":1069.8454155132,"semimajor_km":7446.6435090102,"source":"CELESTRAK","updated_at":"2026-09-21T09:00:15.733811Z"}}}